Weather History for Monarch Pass, CO

Change the Weather History Date:

Monday, July 8, 2013

  Actual Average (KGUC) Record (KGUC)
Temperature  
Mean Temperature 56 °F -  
Max Temperature 68 °F 77 °F 87 °F (2002)
Min Temperature 44 °F 43 °F 39 °F (2003)
Degree Days  
Heating Degree Days 9    
Growing Degree Days 6 (Base 50)    
Moisture  
Dew Point 36 °F    
Average Humidity 54    
Maximum Humidity 93    
Minimum Humidity 21    
Precipitation  
Precipitation 0.00 in - - ()
Sea Level Pressure  
Sea Level Pressure 30.79 in    
Wind  
Wind Speed 12 mph (West)    
Max Wind Speed 32 mph    
Max Gust Speed 46 mph    
Averages and records for this station are not official NWS values.
T = Trace of Precipitation, MM = Missing Value Source: NWS Daily Summary

Daily Weather History Graph

Daily Weather History Graph

Search for Another Location

Airport:

Trip Planner

Search our weather history database for the weather conditions in past years. The results will help you decide how hot, cold, wet, or windy it might be!

Date:

Astronomy

Jul. 08, 2013 Rise Set
Actual Time 5:48 AM MDT 8:31 PM MDT
Civil Twilight 5:17 AM MDT 9:02 PM MDT
Nautical Twilight 4:38 AM MDT 9:41 PM MDT
Astronomical Twilight 3:54 AM MDT 10:26 PM MDT
Moon 6:19 AM MDT (7/8) 8:37 PM MDT (7/8)
Length of Visible Light 15h 45m
Length of Day
14h 42m
New Moon, 0% of the Moon is Illuminated
Jul 8
New Moon
Jul 15
First Quarter
Jul 22
Full
Jul 29
Last Quarter
Aug 6
New

Hourly Weather History & Observations

Time (MDT) Temp. Windchill Dew Point Humidity Pressure Visibility Wind Dir Wind Speed Gust Speed Precip Events Conditions
12:15 AM 46.4 °F 43.5 °F 42.8 °F 87% 30.77 in - SSW 5.8 mph 9.2 mph N/A Thunderstorm Thunderstorm
12:35 AM 44.6 °F 40.7 °F 42.8 °F 93% 30.77 in - WSW 6.9 mph - N/A Thunderstorm Thunderstorm
12:54 AM 46.4 °F 44.3 °F 41.0 °F 81% 30.76 in - West 4.6 mph - N/A   Overcast
1:15 AM 46.4 °F - 41.0 °F 81% 30.76 in - Calm Calm - N/A   Mostly Cloudy
1:35 AM 46.4 °F 45.2 °F 41.0 °F 81% 30.76 in - SW 3.5 mph - N/A   Scattered Clouds
1:54 AM 46.4 °F - 41.0 °F 81% 30.76 in - Calm Calm - N/A   Clear
2:15 AM 44.6 °F - 41.0 °F 87% 30.76 in - Calm Calm - N/A   Unknown
2:35 AM 46.4 °F 43.5 °F 41.0 °F 81% 30.76 in - West 5.8 mph - N/A   Mostly Cloudy
2:55 AM 46.4 °F 44.3 °F 41.0 °F 81% 30.76 in - West 4.6 mph - N/A   Overcast
3:15 AM 46.4 °F 45.2 °F 41.0 °F 81% 30.75 in - ENE 3.5 mph - N/A   Overcast
3:35 AM 46.4 °F - 41.0 °F 81% 30.75 in - Calm Calm - N/A   Overcast
3:55 AM 46.4 °F - 41.0 °F 81% 30.75 in - Calm Calm - N/A   Overcast
4:15 AM 48.2 °F - 37.4 °F 66% 30.75 in - SW 6.9 mph - N/A   Mostly Cloudy
4:35 AM 46.4 °F 41.9 °F 39.2 °F 76% 30.75 in - SSW 9.2 mph - N/A   Clear
4:55 AM 46.4 °F 41.5 °F 39.2 °F 76% 30.75 in - SSW 10.4 mph - N/A   Clear
5:15 AM 44.6 °F 38.4 °F 39.2 °F 81% 30.76 in - SW 12.7 mph - N/A   Scattered Clouds
5:35 AM 44.6 °F 39.2 °F 39.2 °F 81% 30.76 in - SW 10.4 mph - N/A   Scattered Clouds
5:55 AM 44.6 °F 38.1 °F 39.2 °F 81% 30.76 in - SW 13.8 mph - N/A   Clear
6:15 AM 44.6 °F 37.4 °F 41.0 °F 87% 30.76 in - WSW 16.1 mph - N/A   Clear
6:35 AM 44.6 °F 37.2 °F 41.0 °F 87% 30.76 in - WSW 17.3 mph - N/A   Clear
6:55 AM 44.6 °F 37.4 °F 41.0 °F 87% 30.77 in - WSW 16.1 mph - N/A   Clear
7:15 AM 46.4 °F 39.8 °F 41.0 °F 81% 30.77 in - WSW 16.1 mph - N/A   Clear
7:35 AM 46.4 °F 39.8 °F 41.0 °F 81% 30.77 in - WSW 16.1 mph - N/A   Clear
7:55 AM 46.4 °F 39.8 °F 41.0 °F 81% 30.79 in - SW 16.1 mph - N/A   Clear
8:15 AM 48.2 °F - 42.8 °F 82% 30.79 in - SW 17.3 mph - N/A   Clear
8:35 AM 50.0 °F - 42.8 °F 76% 30.79 in - SW 16.1 mph - N/A   Clear
8:55 AM 50.0 °F - 41.0 °F 71% 30.79 in - SW 17.3 mph - N/A   Clear
9:15 AM 50.0 °F - 41.0 °F 71% 30.80 in - WSW 17.3 mph 26.5 mph N/A   Clear
9:35 AM 50.0 °F - 41.0 °F 71% 30.80 in - SW 18.4 mph 24.2 mph N/A   Clear
9:55 AM 50.0 °F - 41.0 °F 71% 30.81 in - SW 16.1 mph 27.6 mph N/A   Clear
10:15 AM 53.6 °F - 41.0 °F 62% 30.80 in - West 31.1 mph 35.7 mph N/A   Clear
10:35 AM 53.6 °F - 39.2 °F 58% 30.81 in - West 28.8 mph 33.4 mph N/A   Clear
10:55 AM 55.4 °F - 41.0 °F 58% 30.82 in - WSW 20.7 mph 32.2 mph N/A   Clear
11:15 AM 55.4 °F - 39.2 °F 54% 30.82 in - WSW 21.9 mph 29.9 mph N/A   Clear
11:35 AM 59.0 °F - 37.4 °F 45% 30.83 in - West 21.9 mph 28.8 mph N/A   Clear
11:55 AM 59.0 °F - 35.6 °F 42% 30.82 in - West 29.9 mph 35.7 mph N/A   Clear
12:15 PM 59.0 °F - 35.6 °F 42% 30.81 in - West 29.9 mph 38.0 mph N/A   Clear
12:35 PM 59.0 °F - 33.8 °F 39% 30.81 in - West 25.3 mph 38.0 mph N/A   Clear
12:54 PM 60.8 °F - 32.0 °F 34% 30.81 in - West 32.2 mph 41.4 mph N/A   Clear
1:15 PM 60.8 °F - 32.0 °F 34% 30.80 in - West 28.8 mph 46.0 mph N/A   Clear
1:35 PM 62.6 °F - 32.0 °F 32% 30.80 in - West 28.8 mph 42.6 mph N/A   Scattered Clouds
1:55 PM 60.8 °F - 32.0 °F 34% 30.80 in - West 20.7 mph 29.9 mph N/A   Mostly Cloudy
2:15 PM 64.4 °F - 32.0 °F 30% 30.81 in - West 23.0 mph 34.5 mph N/A   Mostly Cloudy
2:35 PM 64.4 °F - 32.0 °F 30% 30.80 in - West 28.8 mph 42.6 mph N/A   Scattered Clouds
2:55 PM 62.6 °F - 32.0 °F 32% 30.81 in - WNW 17.3 mph 29.9 mph N/A   Mostly Cloudy
3:15 PM 68.0 °F - 30.2 °F 24% 30.81 in - WNW 15.0 mph 33.4 mph N/A   Mostly Cloudy
3:35 PM 66.2 °F - 28.4 °F 24% 30.80 in - West 20.7 mph 32.2 mph N/A   Scattered Clouds
3:55 PM 68.0 °F - 26.6 °F 21% 30.79 in - West 24.2 mph 33.4 mph N/A   Scattered Clouds
4:15 PM 64.4 °F - 26.6 °F 24% 30.79 in - West 32.2 mph 41.4 mph N/A   Clear
4:35 PM 68.0 °F - 28.4 °F 23% 30.79 in - West 23.0 mph 33.4 mph N/A   Scattered Clouds
4:55 PM 64.4 °F - 28.4 °F 26% 30.80 in - WNW 13.8 mph 33.4 mph N/A   Scattered Clouds
5:15 PM 64.4 °F - 30.2 °F 28% 30.80 in - WSW 16.1 mph 20.7 mph N/A   Mostly Cloudy
5:35 PM 66.2 °F - 30.2 °F 26% 30.79 in - West 19.6 mph 28.8 mph N/A   Mostly Cloudy
5:54 PM 62.6 °F - 30.2 °F 30% 30.80 in - NW 13.8 mph 27.6 mph N/A   Scattered Clouds
6:15 PM 66.2 °F - 30.2 °F 26% 30.79 in - West 20.7 mph 27.6 mph N/A   Mostly Cloudy
6:35 PM 64.4 °F - 30.2 °F 28% 30.79 in - WSW 9.2 mph - N/A   Scattered Clouds
6:55 PM 64.4 °F - 30.2 °F 28% 30.79 in - West 17.3 mph 25.3 mph N/A   Scattered Clouds
7:15 PM 62.6 °F - 30.2 °F 30% 30.79 in - West 17.3 mph 20.7 mph N/A   Scattered Clouds
7:35 PM 62.6 °F - 30.2 °F 30% 30.80 in - West 18.4 mph - N/A   Clear
7:55 PM 60.8 °F - 30.2 °F 31% 30.81 in - West 17.3 mph - N/A   Clear
8:15 PM 59.0 °F - 30.2 °F 34% 30.81 in - West 11.5 mph - N/A   Clear
8:35 PM 57.2 °F - 32.0 °F 38% 30.82 in - NW 11.5 mph - N/A   Clear
8:55 PM 55.4 °F - 32.0 °F 41% 30.83 in - NW 10.4 mph - N/A   Scattered Clouds
9:15 PM 55.4 °F - 30.2 °F 38% 30.83 in - NW 9.2 mph - N/A   Mostly Cloudy
9:35 PM 55.4 °F - 30.2 °F 38% 30.84 in - WNW 10.4 mph - N/A   Overcast
9:55 PM 55.4 °F - 30.2 °F 38% 30.86 in - WNW 9.2 mph - N/A   Overcast
10:15 PM 55.4 °F - 30.2 °F 38% 30.85 in - West 9.2 mph - N/A   Overcast
10:35 PM 55.4 °F - 30.2 °F 38% 30.86 in - West 11.5 mph - N/A   Overcast
10:54 PM 55.4 °F - 30.2 °F 38% 30.85 in - WSW 10.4 mph - N/A   Overcast
11:15 PM 55.4 °F - 30.2 °F 38% 30.85 in - West 15.0 mph - N/A   Overcast
11:34 PM 55.4 °F - 30.2 °F 38% 30.85 in - WSW 12.7 mph - N/A   Overcast
11:55 PM 53.6 °F - 30.2 °F 41% 30.85 in - SW 11.5 mph - N/A   Mostly Cloudy